Preview of NWS' New Version of Forecast
This preview is not operational and should not be used for support decisions.

Regional Weather Roundup (RWR)

Issued by National Weather Service (NWS)

                            
000
ASUS44 KMEG 230210
RWRTN 
TENNESSEE HOURLY STATE WEATHER ROUNDUP
NATIONAL WEATHER SERVICE MEMPHIS TN
900 PM CDT WED MAY 22 2019

TNZ002-004-019-021-049-052-054-088>092-230300-
WEST TENNESSEE
  
CITY           SKY/WX    TMP DP  RH WIND       PRES   REMARKS
MEMPHIS INTL   FAIR      83  73  72 S9        29.98R                  
NWS MEMPHIS      N/A     82 N/A N/A MISG        N/A                   
JACKSON        FAIR      80  73  79 S5        30.01R                  
DYERSBURG      FAIR      81  71  71 S5        29.98R                  
SOMERVILLE     CLEAR     81  72  74 S3        29.99R                  
COVINGTON      CLEAR     82  72  69 S6        29.98R                  
UNION CITY     CLEAR     79  73  83 S7        29.96R                  
BOLIVAR        PTCLDY    79  72  78 E3        30.00R                  
PARIS          CLEAR     79  72  78 S9        30.00R                  
HUNTINGDON     CLEAR     79  72  78 S7        30.00S                  
LEXINGTON      MOCLDY    81  68  65 S9        30.02R                  
SELMER         CLEAR     81  70  69 S9        30.02R                  
SAVANNAH       CLOUDY    81  70  69 S7        30.03R                  
$$

TNZ008-025-027-028-033-062-065-066-230300-
NORTH MIDDLE TENNESSEE
  
CITY           SKY/WX    TMP DP  RH WIND       PRES   REMARKS
NASHVILLE      FAIR      80  61  52 S9        30.06R                  
DICKSON        MOCLDY    77  68  73 S5        30.04S                  
PORTLAND       CLOUDY    77  66  69 S7        30.05R                  
CLARKSVILLE    MOCLDY    80  67  64 S3        30.02R                  
LEBANON        CLOUDY    81  57  44 S9        30.05R                  
SMYRNA         FAIR      80  60  50 S5        30.08R                  
MURFREESBORO   CLOUDY    81  57  44 S7        30.06R                  
COOKEVILLE     MOCLDY    75  59  57 S6        30.10R                  
LIVINGSTON     CLEAR     77  57  50 SW6       30.11R                  
CROSSVILLE     FAIR      73  57  57 W3        30.17R                  
ROCKWOOD       CLEAR     72  61  68 SW6       30.15R                  
$$

TNZ061-075-076-078-094-096-097-230300-
SOUTH MIDDLE TENNESSEE
  
CITY           SKY/WX    TMP DP  RH WIND       PRES   REMARKS
LAWRENCEBURG   PTCLDY    75  64  69 SE5       30.08R                  
LEWISBURG      CLEAR     75  63  64 CALM      30.07R                  
FAYETTEVILLE     N/A     75  55  50 SE6       30.10S                  
TULLAHOMA      CLEAR     73  59  60 S6        30.11R                  
WINCHESTER     CLEAR     73  57  56 SE3       30.11R                  
MCMINNVILLE    PTCLDY    70  61  73 CALM      30.11R                  
COLUMBIA       CLEAR     79  64  61 CALM      30.05R                  
SHELBYVILLE    CLEAR     79  55  44 SE6       30.08S                  
$$

TNZ017-018-042-046-047-230300-
NORTHEAST TENNESSEE
  
CITY           SKY/WX    TMP DP  RH WIND       PRES   REMARKS
TRI CITIES     FAIR      77  62  59 SE5       30.18R                  
ELIZABETHTON   MOCLDY    73  63  68 VRB7      30.20R                  
GREENEVILLE    CLOUDY    77  64  65 VRB6      30.17R                  
$$

TNZ012-013-036-069-073-074-230300-
CENTRAL EAST TENNESSEE
  
CITY           SKY/WX    TMP DP  RH WIND       PRES   REMARKS
KNOXVILLE      FAIR      80  63  55 S7        30.11R                  
OAK RIDGE      FAIR      80  63  55 CALM      30.13R                  
DOWNTOWN KNOXV CLEAR     72  66  83 CALM      30.12R                  
GATLINBURG     PTCLDY    77  66  69 CALM      30.12R                  
MORRISTOWN     PTCLDY    77  64  65 CALM      30.14R                  
JACKSBORO      CLEAR     73  61  64 CALM      30.16R                  
$$

TNZ083-085-099-230300-
SOUTHEAST TENNESSEE
  
CITY           SKY/WX    TMP DP  RH WIND       PRES   REMARKS
CHATTANOOGA    FAIR      80  65  59 CALM      30.11R                  
DAYTON         PTCLDY    73  68  83 CALM      30.10R                  
$$

SKY/WX REPORTED AS FAIR MEANS FEW OR NO CLOUDS BELOW
12 THOUSAND FEET.